Location: Haudi
(46.4025°N, 14.6844°E)
Time: 01:30:29
(UTC+00:00)

Daily predictions for brighter satellites

Satellite Brightness Start Highest point End
(mag) Time Altitude Azimuth Time Altitude Azimuth Time Altitude Azimuth
Cosmos 773 Rocket 4.0 00:00:30 10° NNW 00:05:40 74° ENE 00:06:13 66° ESE
Cosmos 1464 Rocket 4.2 00:08:47 50° WSW 00:09:53 57° WNW 00:16:01 10° N
Cosmos 1536 Rocket 3.8 00:07:10 10° N 00:11:19 61° ENE 00:11:19 61° ENE
Cosmos 2219 Rocket 2.6 00:06:11 10° NW 00:11:13 46° W 00:11:13 46° W
Lacrosse 4 Rocket 2.7 00:13:01 33° NW 00:13:11 33° NW 00:17:02 10° NNE
Cosmos 1354 Rocket 4.3 00:16:38 54° W 00:17:14 57° WNW 00:22:31 10° NNE
SL-4 R/B 3.1 00:22:19 36° NNE 00:22:19 36° NNE 00:25:03 10° E
SL-16 R/B 3.7 00:18:04 10° NNW 00:23:15 34° NE 00:28:23 10° ESE
COSMOS 2428 3.4 00:24:24 10° NW 00:29:12 38° W 00:29:12 38° W
SL-16 R/B 2.6 00:28:37 40° SSE 00:31:06 79° ENE 00:37:24 10° NNW
Nadezhda 4 Rocket 4.3 00:28:16 10° NNW 00:34:19 50° W 00:35:18 46° WSW
Cosmos 2360 Rocket 4.5 00:33:12 10° W 00:33:24 10° W 00:33:24 10° W
BREEZE-M TANK 3.2 00:36:08 42° ESE 00:36:08 42° ESE 00:39:26 10° E
NPP 4.1 00:30:15 10° NNE 00:35:33 54° E 00:36:53 43° SE
CZ-2D R/B 2.3 00:31:19 10° NNE 00:36:47 65° ESE 00:38:05 50° SSE
USA 267 4.2 00:30:49 10° E 00:37:00 47° NNE 00:43:13 10° NW
Cosmos 2034 Rocket 4.4 00:35:41 43° WSW 00:37:04 50° WNW 00:43:12 10° N
GEOS 3 Rocket 3.9 00:35:53 10° NE 00:41:15 66° NW 00:42:45 46° WSW
Okean 2 Rocket 3.6 00:41:46 46° WNW 00:41:46 46° WNW 00:46:01 10° N
Cosmos 1428 Rocket 4.4 00:37:28 10° N 00:43:46 88° E 00:46:04 42° S
KORONAS-FOTON 4.0 00:40:09 10° N 00:43:44 64° ENE 00:43:44 64° ENE
AQUA 4.3 00:39:56 10° NNE 00:44:35 50° E 00:45:34 43° SE
ADEOS II 3.4 00:40:31 10° NNE 00:45:14 32° E 00:47:27 23° SE
Cosmos 1092 Rocket 4.0 00:40:20 10° NNW 00:46:31 64° W 00:48:01 49° SSW
Cosmos 2297 Rocket 2.2 00:45:36 54° S 00:46:51 76° ESE 00:52:31 10° NNE
Cosmos 2219 3.1 00:45:50 57° SSW 00:47:03 87° ESE 00:52:43 10° NNE
Helios 1B rocket 4.0 00:45:32 10° NNW 00:48:48 23° WNW 00:48:49 23° WNW
Cosmos 1980 3.7 00:43:17 10° NNW 00:48:53 64° WSW 00:49:51 54° SSW
Cosmos 2333 Rocket 3.7 00:44:47 10° NW 00:48:11 22° W 00:48:11 22° W
Uosat 12 SS-18 rocket 4.2 00:48:34 65° S 00:49:11 76° SE 00:53:43 10° NE
IRS-1D 4.5 00:44:52 10° NNE 00:49:36 40° E 00:51:26 29° SE
Cosmos 1777 Rocket 4.0 00:49:00 58° SW 00:49:58 75° WNW 00:55:18 10° NNE
Cosmos 1766 3.7 00:51:10 50° ESE 00:51:22 50° E 00:55:10 10° NNE
UNK 3.6 00:52:22 67° SSW 00:52:50 75° WSW 00:57:33 10° NNW
Cosmos 44 Rocket 4.4 00:51:52 10° NW 00:55:08 31° W 00:55:08 31° W
Cosmos 2237 Rocket 2.2 00:53:23 10° NW 00:58:55 57° WSW 00:59:51 50° SSW
Okean 1 Rocket 2.8 01:01:02 72° SSW 01:01:28 86° W 01:05:51 10° N
CZ-4C R/B 3.8 01:04:18 42° NW 01:04:18 42° NW 01:06:55 10° NNW
Cosmos 1626 3.0 00:59:54 10° N 01:03:29 45° ENE 01:04:26 36° ESE
CZ-4B R/B 3.7 00:58:48 10° NNE 01:03:32 58° ESE 01:04:54 41° SSE
Cosmos 923 Rocket 4.2 01:01:45 10° NNW 01:07:07 72° ENE 01:10:51 20° SSE
IKONOS-2 4.4 01:10:35 62° SW 01:10:51 64° WSW 01:15:04 10° NNW
Cosmos 2098 Rocket 4.4 01:08:53 10° N 01:13:29 47° E 01:19:10 10° SSE
ATLAS 3B CENTAUR R/B 4.5 01:13:44 27° S 01:13:51 27° S 01:20:22 10° SE
Cosmos 158 Rocket 4.4 01:10:06 10° NNW 01:15:27 66° ENE 01:20:49 10° SSE
Meteor 2-19 Rocket 4.4 01:17:56 10° N 01:24:08 86° E 01:28:27 21° S
Cosmos 1805 3.4 01:24:26 51° W 01:24:42 52° WNW 01:28:31 10° N
Meteor 1-15 Rocket 4.5 01:22:53 38° SW 01:24:46 54° WNW 01:30:17 10° N
SJ 16-02 1.4 01:25:10 45° S 01:26:27 76° ESE 01:30:53 10° NNE
SL-14 R/B 3.2 01:23:14 10° N 01:27:11 81° E 01:28:24 43° SSE
DNEPR-1 R/B 3.9 01:22:39 10° NW 01:28:21 63° WSW 01:31:05 25° SSE
ERBS 2.1 01:25:26 10° NW 01:28:45 88° NE 01:32:02 10° SE
IRS-P3 4.4 01:28:13 10° NNE 01:33:34 65° ESE 01:36:40 25° S
Cosmos 2227 Rocket 2.5 01:33:34 33° WSW 01:35:59 57° WNW 01:41:35 10° NNE
Cosmos 1455 Rocket 3.3 01:34:24 30° S 01:36:27 66° E 01:40:52 10° NNE
Resurs 1-4 Rocket 2.8 01:32:33 10° N 01:37:26 40° WNW 01:39:24 29° WSW
Cosmos 1758 4.2 01:37:38 23° SSE 01:39:51 46° E 01:43:44 10° NNE
Cosmos 2180 Rocket 4.4 01:36:43 30° SSW 01:39:54 73° W 01:46:04 10° N
Cosmos 1674 4.1 01:37:18 10° NW 01:39:47 23° WNW 01:39:47 23° WNW
Cosmos 1733 3.6 01:42:54 41° WSW 01:43:30 45° WNW 01:47:12 10° N
Cosmos 1892 Rocket 3.5 01:39:35 10° NNW 01:44:04 71° W 01:46:08 31° S
USA 215 3.2 01:40:43 10° NE 01:47:18 89° NNW 01:51:29 25° SW
Cosmos 2279 Rocket 4.3 01:44:46 29° SW 01:47:43 51° WNW 01:53:44 10° N
Cosmos 1461 3.2 01:47:03 34° SSW 01:48:49 66° ESE 01:53:20 10° NE
COBE Rocket 4.1 01:47:33 34° SW 01:49:05 46° W 01:53:34 10° NNW
CZ-2D R/B 4.4 01:47:44 10° NNE 01:51:36 41° E 01:54:31 15° SSE
FALCON 9 DEB 3.8 01:51:41 10° NW 01:55:08 57° NNE 01:58:34 10° ESE
Cosmos 1340 Rocket 2.9 01:54:19 26° S 01:56:28 73° E 02:00:27 10° NNE
Cosmos 2082 3.8 01:53:29 28° SW 01:56:29 66° WNW 02:02:06 10° NNE
Cosmos 2112 Rocket 4.0 01:56:09 10° NNW 02:01:19 62° WSW 02:06:25 10° S
SL-4 R/B 1.4 01:58:07 10° WNW 02:01:33 68° SSW 02:04:55 10° SE
ERS-2 4.2 01:58:37 10° SE 02:01:48 29° ENE 02:04:59 10° N
Cosmos 1953 3.4 01:59:20 12° SSE 02:02:52 42° E 02:06:42 10° NNE
Meteor 1-24 Rocket 4.1 02:00:49 10° NNW 02:05:57 42° W 02:08:55 22° SSW
CBERS-1 4.5 02:01:28 10° N 02:06:22 46° WNW 02:09:09 24° SW
Cosmos 1726 2.8 02:04:07 15° SSE 02:06:57 51° E 02:10:32 10° NNE
SL-16 R/B 2.5 02:02:06 10° NW 02:07:29 44° WSW 02:12:32 11° S
Cosmos 1937 Rocket 3.6 02:06:56 20° SSW 02:10:41 83° ESE 02:16:03 10° NNE
NOSS 2-3 (E) 4.4 02:10:32 18° S 02:13:25 44° ESE 02:18:03 10° NE
H-2A R/B 2.7 02:09:37 10° SSE 02:13:38 53° ENE 02:17:39 10° N
ARIANE 5 R/B 2.5 02:08:42 10° NNE 02:13:57 81° WNW 02:18:02 17° SSW
Cosmos 1898 Rocket 3.5 02:11:41 22° SW 02:15:04 68° WNW 02:20:18 10° NNE
SL-16 R/B 3.9 02:13:43 17° WSW 02:15:24 19° W 02:19:41 10° NW
CZ-2D R/B 3.7 02:12:16 10° N 02:16:21 22° WNW 02:19:24 14° W
IDEFIX/ARIANE 42P 2.7 02:11:39 10° NNE 02:16:52 73° ESE 02:21:55 11° S
Cosmos 1680 Rocket 4.0 02:14:11 10° NW 02:18:58 37° WSW 02:22:58 14° SSW
USA 267 3.2 02:13:14 10° SE 02:19:47 79° SW 02:26:22 10° NW
NOSS 3-1 (C) 3.3 02:17:24 20° SW 02:21:20 90° ESE 02:27:44 10° NE
Cosmos 1544 Rocket 3.7 02:20:01 20° SSW 02:22:59 58° WNW 02:27:24 10° N
ADEOS II 2.8 02:20:08 10° N 02:24:58 38° WNW 02:28:23 18° SW
CZ-4C R/B 3.2 02:23:08 10° SSE 02:26:18 66° ENE 02:29:35 10° N
Cosmos 1607 4.5 02:20:32 10° NW 02:26:26 38° WSW 02:32:19 10° S
Cosmos 990 Rocket 4.3 02:23:19 19° SW 02:26:49 51° WNW 02:31:53 10° NNE
Timation 1 Rocket 4.3 02:22:56 16° SSW 02:27:47 90° N 02:33:47 10° NNE
Cosmos 2263 Rocket 2.6 02:23:53 11° S 02:29:11 62° ESE 02:34:41 10° NNE
CZ-4B R/B 4.4 02:27:36 10° ESE 02:30:01 19° ENE 02:32:25 10° NNE
Cosmos 2297 Rocket 3.8 02:27:24 11° W 02:31:32 22° NW 02:35:55 10° N
Cosmos 372 Rocket 4.4 02:28:28 10° S 02:33:35 63° ESE 02:38:46 10° NNE
Meteor 2-10 4.1 02:29:20 11° SSW 02:34:39 81° W 02:40:19 10° N
Cosmos 1703 4.2 02:30:48 10° N 02:34:43 52° ENE 02:38:34 10° SSE
NOSS 2-3 (D) 3.9 02:33:37 15° SSW 02:37:07 65° SE 02:42:01 10° NE
Cosmos 1626 4.1 02:36:30 10° NW 02:38:19 13° W 02:38:57 13° W
Meteor 1-28 Rocket 4.2 02:36:22 17° SW 02:38:31 28° W 02:41:51 10° NW
Cosmos 1602 Rocket 3.5 02:37:40 10° NNW 02:42:01 66° W 02:46:18 10° S
Cosmos 1470 4.0 02:41:42 16° WSW 02:44:04 27° WNW 02:47:29 10° NNW
CZ-2C R/B 3.5 02:40:43 10° NNE 02:45:04 41° E 02:49:25 10° S
Cosmos 1603 3.7 02:41:25 10° NNW 02:47:10 75° WSW 02:52:51 10° SSE
SL-08 R/B 4.4 02:43:55 11° SSW 02:47:52 28° W 02:52:08 10° NW
Meteor 2-21 Rocket 4.4 02:42:07 10° NNW 02:48:09 71° W 02:54:10 10° S
Meteor 2-16 Rocket 4.4 02:45:24 10° NNW 02:51:35 80° W 02:57:43 10° S
USA 229 DEB 3.8 02:48:34 12° SW 02:54:37 70° NW 03:01:33 10° NE
USA 229 3.8 02:48:40 12° SW 02:54:42 70° NW 03:01:36 10° NE
Cosmos 1726 Rocket 4.5 02:59:17 10° S 03:03:35 52° E 03:07:56 10° NNE
Cosmos 2298 Rocket 4.2 02:58:26 10° SSW 03:03:45 83° ESE 03:09:07 10° NNE
ERBS 4.2 03:03:41 10° WSW 03:04:30 11° WSW 03:05:17 10° SW
NOSS 2-3 (C) 3.8 03:01:08 10° SW 03:05:23 72° NW 03:10:30 10° NE
SJ 16-02 3.4 03:03:08 10° W 03:05:36 14° NW 03:08:04 10° NNW
NOSS 3-1 (A) 3.4 03:00:10 10° SW 03:05:40 75° NW 03:12:09 10° NE
ALOS 4.4 03:04:10 10° NE 03:08:09 27° E 03:12:07 10° SSE
ADEOS Rocket 4.3 03:03:31 10° SSE 03:10:56 62° ENE 03:18:37 10° N
MSX 4.0 03:07:09 10° N 03:12:48 59° WNW 03:18:26 10° SSW
PSLV R/B 3.6 03:09:29 10° NNE 03:13:55 85° W 03:18:16 10° SSW
Cosmos 1943 3.3 03:08:52 10° NW 03:14:21 54° WSW 03:19:48 10° S
PAYLOAD A 4.2 03:14:50 10° NNE 03:20:15 80° WNW 03:25:29 10° SSW
deb Chang Zheng 4 3.9 03:16:25 10° NNE 03:20:47 74° ESE 03:25:07 10° S
SeaSat 1 2.6 03:16:22 10° NNE 03:21:16 66° WNW 03:26:09 10° SW
Cosmos 2227 Rocket 4.3 03:18:36 10° WNW 03:21:22 13° NW 03:24:06 10° N
